Time,TemperatureF,DewpointF,PressureIn,WindDirection,WindDirectionDegrees,WindSpeedMPH,WindSpeedGustMPH,Humidity,HourlyPrecipIn,Conditions,Clouds,dailyrainin,SolarRadiationWatts/m^2,SoftwareType,DateUTC
2013-01-06 15:02:00,28.0,12.0,-100.00,NW,308,3.0,6.0,51,0.00,,,0.00,285.000000,,2013-01-06 21:02:00,
2013-01-06 15:33:00,28.0,12.0,-100.00,NW,308,3.0,6.0,51,0.00,,,0.00,285.000000,,2013-01-06 21:33:00,
2013-01-06 15:43:00,28.0,12.0,-100.00,NW,308,3.0,6.0,51,0.00,,,0.00,285.000000,,2013-01-06 21:43:00,
2013-01-06 15:53:00,28.0,12.0,-100.00,NW,308,3.0,6.0,51,0.00,,,0.00,285.000000,,2013-01-06 21:53:00,
2013-01-06 16:02:00,25.0,9.0,-100.00,SSW,194,3.0,12.0,51,0.00,,,0.00,144.000000,,2013-01-06 22:02:00,
2013-01-06 16:33:00,25.0,9.0,-100.00,SSW,194,3.0,12.0,51,0.00,,,0.00,144.000000,,2013-01-06 22:33:00,
2013-01-06 16:43:00,25.0,9.0,-100.00,SSW,194,3.0,12.0,51,0.00,,,0.00,144.000000,,2013-01-06 22:43:00,
2013-01-06 16:53:00,25.0,9.0,-100.00,SSW,194,3.0,12.0,51,0.00,,,0.00,144.000000,,2013-01-06 22:53:00,
2013-01-06 17:02:00,17.0,8.0,-100.00,SSW,199,1.0,6.0,67,0.00,,,0.00,8.000000,,2013-01-06 23:02:00,
2013-01-06 17:33:00,17.0,8.0,-100.00,SSW,199,1.0,6.0,67,0.00,,,0.00,8.000000,,2013-01-06 23:33:00,
2013-01-06 17:43:00,17.0,8.0,-100.00,SSW,199,1.0,6.0,67,0.00,,,0.00,8.000000,,2013-01-06 23:43:00,
2013-01-06 17:53:00,17.0,8.0,-100.00,SSW,199,1.0,6.0,67,0.00,,,0.00,8.000000,,2013-01-06 23:53:00,
2013-01-06 18:02:00,11.0,6.0,-100.00,NW,304,0.0,3.0,79,0.00,,,0.00,0.000000,,2013-01-07 00:02:00,
2013-01-06 18:33:00,11.0,6.0,-100.00,NW,304,0.0,3.0,79,0.00,,,0.00,0.000000,,2013-01-07 00:33:00,
2013-01-06 18:43:00,11.0,6.0,-100.00,NW,304,0.0,3.0,79,0.00,,,0.00,0.000000,,2013-01-07 00:43:00,
2013-01-06 18:53:00,11.0,6.0,-100.00,NW,304,0.0,3.0,79,0.00,,,0.00,0.000000,,2013-01-07 00:53:00,
2013-01-06 19:02:00,10.0,6.0,-100.00,ESE,122,1.0,3.0,82,0.00,,,0.00,0.000000,,2013-01-07 01:02:00,
2013-01-06 19:23:00,10.0,6.0,-100.00,ESE,122,1.0,3.0,82,0.00,,,0.00,0.000000,,2013-01-07 01:23:00,
2013-01-06 19:32:00,10.0,6.0,-100.00,ESE,122,1.0,3.0,82,0.00,,,0.00,0.000000,,2013-01-07 01:32:00,
2013-01-06 19:43:00,10.0,6.0,-100.00,ESE,122,1.0,3.0,82,0.00,,,0.00,0.000000,,2013-01-07 01:43:00,
2013-01-06 19:53:00,10.0,6.0,-100.00,ESE,122,1.0,3.0,82,0.00,,,0.00,0.000000,,2013-01-07 01:53:00,
2013-01-06 20:02:00,16.0,8.0,-100.00,SSW,196,3.0,8.0,71,0.00,,,0.00,0.000000,,2013-01-07 02:02:00,
2013-01-06 20:23:00,16.0,8.0,-100.00,SSW,196,3.0,8.0,71,0.00,,,0.00,0.000000,,2013-01-07 02:23:00,
2013-01-06 20:32:00,16.0,8.0,-100.00,SSW,196,3.0,8.0,71,0.00,,,0.00,0.000000,,2013-01-07 02:32:00,
2013-01-06 20:43:00,16.0,8.0,-100.00,SSW,196,3.0,8.0,71,0.00,,,0.00,0.000000,,2013-01-07 02:43:00,
2013-01-06 20:53:00,16.0,8.0,-100.00,SSW,196,3.0,8.0,71,0.00,,,0.00,0.000000,,2013-01-07 02:53:00,
2013-01-06 21:02:00,15.0,7.0,-100.00,SSE,161,3.0,8.0,71,0.00,,,0.00,0.000000,,2013-01-07 03:02:00,
2013-01-06 21:23:00,15.0,7.0,-100.00,SSE,161,3.0,8.0,71,0.00,,,0.00,0.000000,,2013-01-07 03:23:00,
2013-01-06 21:33:00,15.0,7.0,-100.00,SSE,161,3.0,8.0,71,0.00,,,0.00,0.000000,,2013-01-07 03:33:00,
2013-01-06 21:43:00,15.0,7.0,-100.00,SSE,161,3.0,8.0,71,0.00,,,0.00,0.000000,,2013-01-07 03:43:00,
2013-01-06 21:53:00,15.0,7.0,-100.00,SSE,161,3.0,8.0,71,0.00,,,0.00,0.000000,,2013-01-07 03:53:00,
2013-01-06 22:02:00,14.0,7.0,-100.00,SSE,161,4.0,9.0,73,0.00,,,0.00,0.000000,,2013-01-07 04:02:00,
2013-01-06 22:33:00,14.0,7.0,-100.00,SSE,161,4.0,9.0,73,0.00,,,0.00,0.000000,,2013-01-07 04:33:00,
2013-01-06 22:42:00,14.0,7.0,-100.00,SSE,161,4.0,9.0,73,0.00,,,0.00,0.000000,,2013-01-07 04:42:00,
2013-01-06 22:52:00,14.0,7.0,-100.00,SSE,161,4.0,9.0,73,0.00,,,0.00,0.000000,,2013-01-07 04:52:00,
2013-01-06 23:02:00,14.0,7.0,-100.00,SSE,154,6.0,12.0,73,0.00,,,0.00,0.000000,,2013-01-07 05:02:00,
2013-01-06 23:22:00,14.0,7.0,-100.00,SSE,154,6.0,12.0,73,0.00,,,0.00,0.000000,,2013-01-07 05:22:00,
2013-01-06 23:33:00,14.0,7.0,-100.00,SSE,154,6.0,12.0,73,0.00,,,0.00,0.000000,,2013-01-07 05:33:00,
2013-01-06 23:43:00,14.0,7.0,-100.00,SSE,154,6.0,12.0,73,0.00,,,0.00,0.000000,,2013-01-07 05:43:00,
2013-01-06 23:53:00,14.0,7.0,-100.00,SSE,154,6.0,12.0,73,0.00,,,0.00,0.000000,,2013-01-07 05:53:00,